Tony, WI

11:07 AM CST on February 23, 2017 (GMT -0600)
Rusk County

Weather History for KRCX - September, 2013

Change the Weather History Date:

Sunday, September 15, 2013

  Actual Average (KPBH) Record (KPBH)
Temperature  
Mean Temperature 52 °F -  
Max Temperature 63 °F 67 °F 82 °F (2015)
Min Temperature 38 °F 47 °F 24 °F (2007)
Degree Days  
Heating Degree Days 14    
Growing Degree Days 2 (Base 50)    
Moisture  
Dew Point 50 °F    
Average Humidity 86    
Maximum Humidity 97    
Minimum Humidity 71    
Precipitation  
Precipitation 0.20 in - - ()
Sea Level Pressure  
Sea Level Pressure 30.12 in    
Wind  
Wind Speed 6 mph (NE)    
Max Wind Speed 15 mph    
Max Gust Speed 24 mph    
Visibility 10 miles    
Events Rain    
Averages and records for this station are not official NWS values.
T = Trace of Precipitation, MM = Missing Value Source: NWS Daily Summary

Daily Weather History Graph

Daily Weather History Graph

Search for Another Location

Airport or City:

Trip Planner

Search our weather history database for the weather conditions in past years. The results will help you decide how hot, cold, wet, or windy it might be!

Date:

Astronomy

Sep. 15, 2013 Rise Set
Actual Time 6:42 AM CDT 7:14 PM CDT
Civil Twilight 6:12 AM CDT 7:44 PM CDT
Nautical Twilight 5:37 AM CDT 8:19 PM CDT
Astronomical Twilight 5:01 AM CDT 8:55 PM CDT
Moon 4:50 PM CDT (9/15) 2:10 AM CDT (9/15)
Length of Visible Light 13h 31m
Length of Day
12h 31m
Waxing Gibbous, 82% of the Moon is Illuminated
Sep 15
Waxing Gibbous
Sep 19
Full
Sep 26
Last Quarter
Oct 4
New
Oct 11
First Quarter

Hourly Weather History & Observations

Time (CDT) Temp. Windchill Dew Point Humidity Pressure Visibility Wind Dir Wind Speed Gust Speed Precip Events Conditions
12:15 AM 55.8 °F - 54.9 °F 97% 30.00 in 10.0 mi SE 3.5 mph - N/A   Overcast
12:35 AM 55.6 °F - 54.7 °F 97% 29.99 in 10.0 mi SE 4.6 mph - N/A   Overcast
12:55 AM 55.4 °F - 54.5 °F 97% 30.00 in 10.0 mi SSE 4.6 mph - N/A   Overcast
1:15 AM 55.4 °F - 54.5 °F 97% 30.00 in 10.0 mi SE 3.5 mph - 0.01 in   Overcast
1:35 AM 55.4 °F - 54.5 °F 97% 29.99 in 10.0 mi SE 3.5 mph - 0.01 in Rain Light Rain
1:55 AM 55.4 °F - 54.5 °F 97% 29.99 in 7.0 mi ESE 4.6 mph - 0.02 in Rain Light Rain
2:15 AM 55.4 °F - 54.5 °F 97% 29.98 in 7.0 mi ESE 4.6 mph - N/A Rain Rain
2:35 AM 54.9 °F - 54.0 °F 97% 29.98 in 7.0 mi SE 4.6 mph - 0.01 in   Drizzle
2:55 AM 54.7 °F - 53.6 °F 96% 29.98 in 7.0 mi SE 4.6 mph - 0.01 in Rain Light Rain
3:15 AM 54.7 °F - 53.6 °F 96% 29.98 in 7.0 mi SE 4.6 mph - 0.02 in Rain Rain
3:35 AM 54.5 °F - 53.6 °F 97% 29.97 in 10.0 mi ESE 3.5 mph - 0.02 in   Drizzle
3:55 AM 54.5 °F - 53.2 °F 96% 29.98 in 10.0 mi SE 3.5 mph - 0.02 in Rain Light Rain
4:15 AM 54.5 °F - 53.4 °F 96% 29.97 in 7.0 mi ESE 3.5 mph - 0.02 in Rain Light Rain
4:35 AM 54.5 °F - 53.2 °F 96% 29.97 in 10.0 mi East 4.6 mph - 0.03 in   Drizzle
4:55 AM 54.5 °F - 53.2 °F 96% 29.98 in 10.0 mi East 3.5 mph - 0.04 in Rain Rain
5:15 AM 54.5 °F - 53.2 °F 96% 29.99 in 7.0 mi East 3.5 mph - 0.02 in Rain Light Rain
5:35 AM 54.5 °F - 53.2 °F 96% 30.00 in 10.0 mi East 3.5 mph - 0.04 in Rain Light Rain
5:55 AM 54.1 °F - 53.1 °F 96% 29.98 in 10.0 mi ENE 4.6 mph - 0.07 in Rain Light Rain
6:15 AM 54.0 °F - 52.9 °F 96% 30.00 in 10.0 mi ENE 3.5 mph - 0.01 in Rain Light Rain
6:35 AM 54.1 °F - 53.2 °F 97% 30.01 in 10.0 mi Calm Calm - 0.01 in   Drizzle
6:55 AM 54.1 °F - 53.1 °F 96% 30.01 in 10.0 mi East 3.5 mph - 0.03 in Rain Light Rain
7:15 AM 54.1 °F - 53.1 °F 96% 30.01 in 10.0 mi ENE 3.5 mph - N/A Rain Rain
7:35 AM 54.1 °F - 53.1 °F 96% 30.01 in 10.0 mi ENE 4.6 mph - 0.01 in   Overcast
7:55 AM 54.5 °F - 53.6 °F 97% 30.02 in 10.0 mi Calm Calm - 0.01 in   Overcast
8:15 AM 54.9 °F - 54.0 °F 97% 30.03 in 10.0 mi NNE 3.5 mph - N/A   Overcast
8:35 AM 55.4 °F - 54.5 °F 97% 30.03 in 10.0 mi NNE 4.6 mph - N/A   Overcast
8:55 AM 56.5 °F - 54.5 °F 93% 30.03 in 10.0 mi ENE 3.5 mph - N/A   Mostly Cloudy
9:15 AM 56.7 °F - 54.5 °F 92% 30.04 in 10.0 mi NNE 4.6 mph - N/A   Overcast
9:35 AM 57.2 °F - 54.5 °F 91% 30.05 in 10.0 mi NNE 5.8 mph - N/A   Overcast
9:55 AM 57.7 °F - 54.7 °F 90% 30.05 in 10.0 mi NNE 6.9 mph - N/A   Overcast
10:15 AM 59.0 °F - 54.9 °F 86% 30.06 in 10.0 mi NNE 6.9 mph - N/A   Overcast
10:35 AM 59.2 °F - 54.5 °F 84% 30.07 in 10.0 mi NE 6.9 mph - N/A   Overcast
10:55 AM 59.5 °F - 55.0 °F 85% 30.08 in 10.0 mi North 6.9 mph - N/A   Overcast
11:15 AM 59.5 °F - 54.1 °F 82% 30.08 in 10.0 mi NNE 8.1 mph - N/A   Overcast
11:35 AM 63.0 °F - 54.7 °F 74% 30.09 in 10.0 mi North 9.2 mph - N/A   Mostly Cloudy
11:55 AM 60.6 °F - 54.1 °F 79% 30.09 in 10.0 mi NNE 9.2 mph - N/A   Overcast
12:15 PM 61.2 °F - 53.8 °F 77% 30.10 in 10.0 mi NNE 5.8 mph - N/A   Overcast
12:35 PM 61.7 °F - 53.6 °F 75% 30.10 in 10.0 mi NNE 10.4 mph - N/A   Overcast
12:55 PM 60.4 °F - 54.5 °F 81% 30.11 in 10.0 mi North 9.2 mph - N/A   Overcast
1:15 PM 60.1 °F - 54.9 °F 83% 30.12 in 10.0 mi NNE 13.8 mph 18.4 mph N/A   Overcast
1:35 PM 59.7 °F - 53.4 °F 80% 30.13 in 10.0 mi NNE 10.4 mph 21.9 mph N/A   Overcast
1:55 PM 59.9 °F - 53.4 °F 79% 30.14 in 10.0 mi NNE 12.7 mph - N/A   Overcast
2:15 PM 58.5 °F - 53.6 °F 84% 30.14 in 10.0 mi North 13.8 mph 18.4 mph N/A   Overcast
2:35 PM 60.3 °F - 52.7 °F 76% 30.15 in 10.0 mi NNE 13.8 mph - N/A   Overcast
2:55 PM 59.9 °F - 52.9 °F 78% 30.15 in 10.0 mi North 12.7 mph - N/A   Overcast
3:15 PM 59.9 °F - 51.8 °F 75% 30.16 in 10.0 mi North 13.8 mph - N/A   Overcast
3:35 PM 59.5 °F - 51.1 °F 74% 30.17 in 10.0 mi NNE 13.8 mph 17.3 mph N/A   Overcast
3:55 PM 59.9 °F - 50.7 °F 72% 30.17 in 10.0 mi NNE 13.8 mph - N/A   Overcast
4:15 PM 60.3 °F - 50.7 °F 71% 30.19 in 10.0 mi North 13.8 mph 18.4 mph N/A   Overcast
4:35 PM 59.0 °F - 49.5 °F 71% 30.20 in 10.0 mi North 11.5 mph - N/A   Overcast
4:55 PM 58.5 °F - 49.3 °F 72% 30.21 in 10.0 mi NNW 13.8 mph - N/A   Mostly Cloudy
5:15 PM 56.8 °F - 48.9 °F 75% 30.23 in 10.0 mi North 12.7 mph 21.9 mph N/A   Mostly Cloudy
5:35 PM 56.1 °F - 47.5 °F 73% 30.23 in 10.0 mi North 15.0 mph 21.9 mph N/A   Overcast
5:55 PM 55.2 °F - 46.8 °F 73% 30.25 in 10.0 mi North 12.7 mph 18.4 mph N/A   Overcast
6:15 PM 53.8 °F - 46.0 °F 75% 30.26 in 10.0 mi North 13.8 mph 18.4 mph N/A   Overcast
6:35 PM 52.9 °F - 43.9 °F 71% 30.27 in 10.0 mi NNE 13.8 mph 24.2 mph N/A   Overcast
6:55 PM 52.0 °F - 42.8 °F 71% 30.28 in 10.0 mi North 15.0 mph 20.7 mph N/A   Overcast
7:15 PM 51.8 °F - 43.0 °F 72% 30.28 in 10.0 mi North 12.7 mph 18.4 mph N/A   Overcast
7:35 PM 51.4 °F - 43.9 °F 75% 30.29 in 10.0 mi NNE 11.5 mph - N/A   Overcast
7:55 PM 50.9 °F - 42.4 °F 73% 30.30 in 10.0 mi NNE 11.5 mph 18.4 mph N/A   Overcast
8:15 PM 50.5 °F - 42.4 °F 74% 30.30 in 10.0 mi North 10.4 mph - N/A   Overcast
8:35 PM 50.2 °F - 42.6 °F 75% 30.30 in 10.0 mi North 6.9 mph - N/A   Overcast
8:55 PM 47.7 °F - 41.5 °F 79% 30.31 in 10.0 mi NNE 8.1 mph - N/A   Scattered Clouds
9:15 PM 46.4 °F 45.2 °F 41.4 °F 83% 30.31 in 10.0 mi NNE 3.5 mph - N/A   Clear
9:35 PM 45.3 °F 44.0 °F 41.4 °F 86% 30.32 in 10.0 mi NNE 3.5 mph - N/A   Clear
9:55 PM 45.1 °F 43.7 °F 41.2 °F 86% 30.32 in 10.0 mi NNE 3.5 mph - N/A   Clear
10:15 PM 43.0 °F 41.3 °F 40.3 °F 90% 30.32 in 10.0 mi North 3.5 mph - N/A   Clear
10:35 PM 42.3 °F - 40.1 °F 92% 30.32 in 10.0 mi Calm Calm - N/A   Clear
10:55 PM 41.7 °F - 39.9 °F 93% 30.32 in 10.0 mi Calm Calm - N/A   Clear
11:15 PM 40.6 °F - 39.2 °F 95% 30.33 in 10.0 mi Calm Calm - N/A   Clear
11:35 PM 41.7 °F - 40.5 °F 95% 30.34 in 10.0 mi Calm Calm - N/A   Clear
11:55 PM 38.8 °F - 37.6 °F 95% 30.34 in 10.0 mi Calm Calm - N/A   Clear